Home > Weather > Thule Air Base > Past weeks

Flag for Greenland Past Weather in Thule Air Base, Greenland — Yesterday and Last 2 Weeks

Now
48 °F

Sunny.


Feels Like: 48 °F
Forecast: 35 / 45 °F
Wind: No wind

Location: Thule A. B.

Current Time: Aug 24, 2016 at 4:59:24 PM

Latest Report: Aug 24, 2016 at 3:58 PM


Visibility: N/A

Pressure: 29.94 "Hg

Humidity: 62%

Dew Point: 36 °F

Location of Thule Air BaseLocation

Past Weather in Thule Air Base — Graph

°F

Thule Air Base Temperature Yesterday

Maximum temperature yesterday: 51 °F (at 4:58 PM)
Minimum temperature yesterday: 39 °F (at 11:58 PM)
Average temperature yesterday: 44 °F

High & Low Weather Summary for the Past Weeks

 TemperatureHumidityPressure
High51 °F (Aug 23, 4:58 PM)93% (Aug 19, 12:58 AM)29.99 "Hg (Aug 19, 12:58 AM)
Low36 °F (Aug 16, 2:58 AM)39% (Aug 16, 11:58 PM)29.49 "Hg (Aug 18, 2:58 PM)
Average42 °F75%29.73 "Hg
* Reported Aug 9 3:58 PM — Aug 24 3:58 PM, Thule Air Base, Weather by CustomWeather, © 2016

Note: Actual official high and low records may vary slightly from our data, if they occured in-between our weather recording intervals... More about our weather records

Advertising

Thule Air Base Weather History for the Previous 24 Hours

Scroll right to see more
 ConditionsComfort  
Time TempWeatherWind HumidityBarometerVisibility
3:58 PM
Wed, Aug 24
48 °FSunny.No wind63%29.94 "HgN/A
2:58 PM45 °FSunny.5 mph71%29.94 "HgN/A
1:58 PM43 °FSunny.6 mph87%29.94 "HgN/A
1:04 PM41 °FFog.No wind87%29.99 "Hg3 mi
12:58 PM41 °FFog.No wind87%29.94 "Hg1 mi
11:58 AM39 °FSunny.1 mph93%29.95 "HgN/A
10:58 AM41 °FOvercast.3 mph93%29.95 "HgN/A
10:04 AM37 °FFog.No wind93%29.99 "Hg1 mi
9:58 AM37 °FFog.No wind93%29.95 "Hg0 mi
8:58 AM37 °FFog.1 mph93%29.95 "Hg1 mi
7:59 AM36 °FFog.No wind93%29.95 "Hg0 mi
6:58 AM36 °FChilly.No wind93%29.94 "HgN/A
5:58 AM37 °FChilly.3 mph87%29.93 "HgN/A
5:00 AM36 °FChilly.No wind87%29.98 "HgN/A
4:58 AM36 °FChilly.No wind93%29.93 "HgN/A
4:04 AM36 °FChilly.2 mph87%29.97 "HgN/A
3:04 AM36 °FFog.No wind93%29.97 "Hg2 mi
2:58 AM37 °FFog.No wind87%29.92 "Hg2 mi
1:58 AM37 °FClear.1 mph93%29.92 "HgN/A
12:58 AM39 °FSunny.6 mph87%29.93 "HgN/A
11:58 PM
Tue, Aug 23
39 °FSunny.3 mph93%29.93 "HgN/A
10:58 PM41 °FSunny.3 mph87%29.92 "HgN/A
9:58 PM43 °FSunny.2 mph81%29.92 "HgN/A
8:58 PM45 °FPartly sunny.3 mph81%29.92 "HgN/A
7:58 PM45 °FSunny.3 mph76%29.93 "HgN/A
6:58 PM45 °FSunny.6 mph76%29.93 "HgN/A
5:58 PM46 °FSunny.6 mph71%29.93 "HgN/A
4:58 PM51 °FPartly sunny.No wind56%29.93 "HgN/A
Weather by CustomWeather, © 2016

See weather overviewHow to use our weather pages